Location: Brotuna
(46.2000°N, 22.6000°E)
Time: 11:09:45
(UTC+00:00)

STARLINK-1229 - Pass Details

Date: 09 April 2020
Orbit: 378 x 381 km, 53.0° (Epoch: 26 May)

Event Time Altitude Azimuth Distance (km) Brightness Sun altitude
Rises 18:18:36 0° 301° (WNW) 2,263 8.9 -12.1°
Reaches altitude 10° 18:20:40 10° 303° (WNW) 1,406 7.2 -12.5°
Maximum altitude 18:23:48 75° 29° (NNE) 399 2.9 -12.9°
Enters shadow 18:25:23 26° 111° (ESE) 784 3.8 -13.2°
